Track QB50P1 (EO-79) now! 10-day predictions QB50P1 (EO-79) is classified as:
1 40025U 14033R 23160.36445350 .00004142 00000-0 39513-3 0 9999 2 40025 97.9965 106.9841 0010345 328.1859 31.8734 14.93862788486972